Вернуться в каталог

SL-6 R/B(2)

АктивенHEO
NORAD 13298·ROCKET BODY·🇷🇺 Russia

Запущен Jun 25, 1982 с Plesetsk Cosmodrome

Loading…

Ближайшие Пролёты (ближайшие 24 часа)

TLE

СвежийSource: Space-Track

Эпоха: Sep 14, 2026, 11:28 UTC

1 13298U 82064D   26257.47801183 -.00000667  00000-0  00000-0 0  9997
2 13298  67.2637  70.4208 6323372   5.7164 358.9402  2.03271957251438

Отслеживайте SL-6 R/B(2) в реальном времени с AllMySat

Download on the App Store